Weather History for Minot, ND

Change the Weather History Date:

Tuesday, February 5, 2013

  Actual Average Record
Temperature  
Mean Temperature 23 °F 14 °F  
Max Temperature 34 °F 23 °F 58 °F (1963)
Min Temperature 11 °F 6 °F -34 °F (1936)
Degree Days  
Heating Degree Days 42 51  
Month to date heating degree days 264 255  
Since 1 July heating degree days 5665 5487  
Moisture  
Dew Point 13 °F    
Average Humidity 81    
Maximum Humidity 88    
Minimum Humidity 73    
Precipitation  
Precipitation T in 0.01 in 0.07 in (1979)
Month to date precipitation 0.14 0.07  
Year to date precipitation 0.25 0.58  
Sea Level Pressure  
Sea Level Pressure 29.91 in    
Wind  
Wind Speed 7 mph (North)    
Max Wind Speed 25 mph    
Max Gust Speed 32 mph    
Visibility 9 miles    
Events      
T = Trace of Precipitation, MM = Missing Value Source: NWS Daily Summary

Daily Weather History Graph

Daily Weather History Graph

Search for Another Location

Airport:

Trip Planner

Search our weather history database for the weather conditions in past years. The results will help you decide how hot, cold, wet, or windy it might be!

Date:

Astronomy

Feb. 05, 2013 Rise Set
Actual Time 8:07 AM CST 5:51 PM CST
Civil Twilight 7:34 AM CST 6:24 PM CST
Nautical Twilight 6:57 AM CST 7:01 PM CST
Astronomical Twilight 6:21 AM CST 7:38 PM CST
Moon 4:00 AM CST (2/5) 1:01 PM CST (2/5)
Length of Visible Light 10h 50m
Length of Day
9h 44m
Waning Crescent, 26% of the Moon is Illuminated
Feb 5
Waning Crescent
Feb 10
New
Feb 17
First Quarter
Feb 25
Full
Mar 4
Last Quarter

Hourly Weather History & Observations

Time (CST) Temp. Windchill Dew Point Humidity Pressure Visibility Wind Dir Wind Speed Gust Speed Precip Events Conditions
12:54 AM 33.1 °F 20.9 °F 26.1 °F 75% 29.70 in 10.0 mi WNW 21.9 mph - N/A   Overcast
1:54 AM 32.0 °F 19.8 °F 26.1 °F 79% 29.72 in 10.0 mi WNW 20.7 mph - N/A   Overcast
2:17 AM 30.2 °F 17.8 °F 26.6 °F 86% 29.67 in 10.0 mi WNW 19.6 mph - N/A   Overcast
2:54 AM 25.0 °F 12.6 °F 21.0 °F 85% 29.77 in 8.0 mi NNW 15.0 mph 24.2 mph N/A   Overcast
3:04 AM 21.2 °F 7.3 °F 19.4 °F 93% 29.72 in 6.0 mi NNW 16.1 mph - N/A   Overcast
3:54 AM 17.1 °F 4.3 °F 14.0 °F 88% 29.83 in 7.0 mi NNW 11.5 mph - N/A   Overcast
4:54 AM 15.1 °F 5.2 °F 10.9 °F 84% 29.88 in 10.0 mi NNW 6.9 mph - N/A   Overcast
5:54 AM 12.0 °F -0.4 °F 8.1 °F 84% 29.91 in 10.0 mi NNW 9.2 mph - N/A   Overcast
6:54 AM 12.0 °F 2.7 °F 7.0 °F 80% 29.95 in 10.0 mi NNW 5.8 mph - N/A   Overcast
7:54 AM 10.9 °F 0.2 °F 7.0 °F 84% 29.96 in 9.0 mi NNW 6.9 mph - N/A   Overcast
8:54 AM 10.9 °F 2.9 °F 7.0 °F 84% 30.00 in 8.0 mi NW 4.6 mph - N/A   Overcast
9:34 AM 10.4 °F 4.0 °F 6.8 °F 85% 29.91 in 9.0 mi North 3.5 mph - N/A   Overcast
9:45 AM 10.4 °F 2.2 °F 6.8 °F 85% 29.92 in 10.0 mi North 4.6 mph - N/A   Overcast
9:54 AM 10.4 °F 4.0 °F 6.8 °F 85% 29.92 in 9.0 mi NNW 3.5 mph - N/A   Overcast
10:46 AM 12.2 °F 6.1 °F 6.8 °F 79% 29.92 in 5.0 mi NNE 3.5 mph - N/A   Haze
10:54 AM 12.0 °F 5.9 °F 7.0 °F 80% 30.01 in 8.0 mi NNE 3.5 mph - N/A   Overcast
11:54 AM 12.9 °F - 8.1 °F 81% 30.03 in 10.0 mi Calm Calm - N/A   Overcast
12:54 PM 15.1 °F 9.4 °F 9.0 °F 77% 30.02 in 9.0 mi SE 3.5 mph - N/A   Overcast
1:54 PM 17.1 °F - 10.9 °F 77% 30.00 in 9.0 mi Calm Calm - N/A   Overcast
2:54 PM 19.9 °F 13.4 °F 12.9 °F 74% 29.98 in 10.0 mi South 4.6 mph - N/A   Overcast
3:54 PM 21.0 °F - 15.1 °F 78% 29.99 in 10.0 mi Calm Calm - N/A   Overcast
4:54 PM 21.0 °F 13.4 °F 15.1 °F 78% 29.99 in 10.0 mi ENE 5.8 mph - N/A   Overcast
5:54 PM 19.0 °F 13.9 °F 15.1 °F 85% 29.99 in 9.0 mi East 3.5 mph - N/A   Overcast
6:54 PM 19.0 °F 11.1 °F 15.1 °F 85% 29.98 in 10.0 mi ESE 5.8 mph - N/A   Overcast
7:35 PM 17.6 °F 10.7 °F 14.0 °F 86% 29.87 in 10.0 mi ESE 4.6 mph - N/A   Overcast
7:54 PM 16.0 °F - 12.9 °F 88% 29.99 in 10.0 mi Calm Calm - N/A   Overcast
8:54 PM 16.0 °F 10.4 °F 12.9 °F 88% 29.97 in 9.0 mi SSE 3.5 mph - N/A   Overcast
9:54 PM 18.0 °F 11.1 °F 14.0 °F 84% 29.96 in 10.0 mi ESE 4.6 mph - N/A   Overcast
10:54 PM 19.0 °F 11.1 °F 15.1 °F 85% 29.95 in 10.0 mi SE 5.8 mph - N/A   Overcast
11:54 PM 19.9 °F 9.3 °F 16.0 °F 85% 29.93 in 10.0 mi ESE 9.2 mph - 0.00 in   Overcast